Tracking 30970 objects as of 3-Jul-2025
HD Live streaming from Space Station
objects crossing your sky now

COSMOS 1285 DEB

Track COSMOS 1285 DEB now!


NORAD ID: 27801
Int'l Code: 1981-071Q
Perigee: 1,146.1 km
Apogee: 39,692.7 km
Inclination: 64.1 °
Period: 727.3 minutes
Semi major axis: 26790 km
RCS: 0.1262 m2 (medium)
Launch date: August 4, 1981
Source: Commonwealth of Independent States (former USSR) (CIS)
Launch site: PLESETSK MISSILE AND SPACE COMPLEX (PKMTR)

Note: This is SATELLITE DEBRIS
Your satellite tracking list
Your tracking list is empty




NASA's NSSDC Master Catalog

Two Line Element Set (TLE):
1 27801U 81071Q   25183.44096067 -.00000411  00000-0  00000-0 0  9997
2 27801  64.0904  82.4887 7194100  38.7500 355.3231  1.97985943176646
Source of the keplerian elements: AFSPC